User: anonymous   Login
Location: �bnet
(46.9957°N, 8.4908°E)
Time: 03:12:42
(UTC+00:00)
Language:

Cosmos 1610 Rocket - Orbit

View from above orbital plane
View from above orbital plane
View from above satellite
View from above satellite

Ground track
Ground track

The orbit data is extracted from the following two-line orbital elements,

1 15399U 84118B   21210.41409917  .00000066  00000-0  52842-4 0  9997
2 15399  82.9480 330.2543 0032380 273.7926 146.6857 13.76139726842479
Epoch (UTC): 29 July 2021 09:56:18
Eccentricity: 0.0032380
inclination: 82.9480°
perigee height: 954 km
apogee height: 1001 km
right ascension of ascending node: 330.2543°
argument of perigee: 273.7926°
revolutions per day: 13.76139726
mean anomaly at epoch: 146.6857°
orbit number at epoch: 84247

The dashed part of the orbit path shows where the satellite is in the earth's shadow,  

DLR